Year,Month,Day,Hour,Minute,Value (Times are PST for temperature in C)
2019,10,30,00,00,3.70
2019,10,30,00,01,3.60
2019,10,30,00,02,3.70
2019,10,30,00,03,3.70
2019,10,30,00,04,3.70
2019,10,30,00,05,3.70
2019,10,30,00,06,3.60
2019,10,30,00,07,3.70
2019,10,30,00,08,3.60
2019,10,30,00,09,3.60
2019,10,30,00,10,3.60
2019,10,30,00,11,3.60
2019,10,30,00,12,3.60
2019,10,30,00,13,3.50
2019,10,30,00,14,3.50
2019,10,30,00,15,3.60
2019,10,30,00,16,3.60
2019,10,30,00,17,3.60
2019,10,30,00,18,3.60
2019,10,30,00,19,3.60
2019,10,30,00,20,3.60
2019,10,30,00,21,3.50
2019,10,30,00,22,3.50
2019,10,30,00,23,3.50
2019,10,30,00,24,3.50
2019,10,30,00,25,3.50
2019,10,30,00,26,3.50
2019,10,30,00,27,3.40
2019,10,30,00,28,3.40
2019,10,30,00,29,3.40
2019,10,30,00,30,3.50
2019,10,30,00,31,3.50
2019,10,30,00,32,3.50
2019,10,30,00,33,3.50
2019,10,30,00,34,3.60
2019,10,30,00,35,3.60
2019,10,30,00,36,3.60
2019,10,30,00,37,3.50
2019,10,30,00,38,3.50
2019,10,30,00,39,3.50
2019,10,30,00,40,3.40
2019,10,30,00,41,3.40
2019,10,30,00,42,3.40
2019,10,30,00,43,3.30
2019,10,30,00,44,3.30
2019,10,30,00,45,3.30
2019,10,30,00,46,3.30
2019,10,30,00,47,3.30
2019,10,30,00,48,3.30
2019,10,30,00,49,3.20
2019,10,30,00,50,3.20
2019,10,30,00,51,3.20
2019,10,30,00,52,3.20
2019,10,30,00,53,3.20
2019,10,30,00,54,3.20
2019,10,30,00,55,3.20
2019,10,30,00,56,3.30
2019,10,30,00,57,3.30
2019,10,30,00,58,3.30
2019,10,30,00,59,3.30
2019,10,30,01,00,3.30
2019,10,30,01,01,3.30
2019,10,30,01,02,3.30
2019,10,30,01,03,3.30
2019,10,30,01,04,3.30
2019,10,30,01,05,3.30
2019,10,30,01,06,3.30
2019,10,30,01,07,3.30
2019,10,30,01,08,3.30
2019,10,30,01,09,3.30
2019,10,30,01,10,3.30
2019,10,30,01,11,3.30
2019,10,30,01,12,3.30
2019,10,30,01,13,3.30
2019,10,30,01,14,3.30
2019,10,30,01,15,3.30
2019,10,30,01,16,3.30
2019,10,30,01,17,3.30
2019,10,30,01,18,3.30
2019,10,30,01,19,3.30
2019,10,30,01,20,3.20
2019,10,30,01,21,3.20
2019,10,30,01,22,3.20
2019,10,30,01,23,3.20
2019,10,30,01,24,3.20
2019,10,30,01,25,3.10
2019,10,30,01,26,3.10
2019,10,30,01,27,3.10
2019,10,30,01,28,3.10
2019,10,30,01,29,3.10
2019,10,30,01,30,3.10
2019,10,30,01,31,3.20
2019,10,30,01,32,3.20
2019,10,30,01,33,3.20
2019,10,30,01,34,3.30
2019,10,30,01,35,3.30
2019,10,30,01,36,3.30
2019,10,30,01,37,3.30
2019,10,30,01,38,3.30
2019,10,30,01,39,3.40
2019,10,30,01,40,3.40
2019,10,30,01,41,3.50
2019,10,30,01,42,3.50
2019,10,30,01,43,3.50
2019,10,30,01,44,3.60
2019,10,30,01,45,3.60
2019,10,30,01,46,3.60
2019,10,30,01,47,3.50
2019,10,30,01,48,3.40
2019,10,30,01,49,3.30
2019,10,30,01,50,3.30
2019,10,30,01,51,3.20
2019,10,30,01,52,3.10
2019,10,30,01,53,3.00
2019,10,30,01,54,3.00
2019,10,30,01,55,3.00
2019,10,30,01,56,3.00
2019,10,30,01,57,3.00
2019,10,30,01,58,3.00
2019,10,30,01,59,3.00
2019,10,30,02,00,3.00
2019,10,30,02,01,3.00
2019,10,30,02,02,3.00
2019,10,30,02,03,2.90
2019,10,30,02,04,2.90
2019,10,30,02,05,2.90
2019,10,30,02,06,2.90
2019,10,30,02,07,2.90
2019,10,30,02,08,2.90
2019,10,30,02,09,2.90
2019,10,30,02,10,2.80
2019,10,30,02,11,2.80
2019,10,30,02,12,2.80
2019,10,30,02,13,2.80
2019,10,30,02,14,2.80
2019,10,30,02,15,2.80
2019,10,30,02,16,2.80
2019,10,30,02,17,2.80
2019,10,30,02,18,2.80
2019,10,30,02,19,2.80
2019,10,30,02,20,2.80
2019,10,30,02,21,2.80
2019,10,30,02,22,2.80
2019,10,30,02,23,2.70
2019,10,30,02,24,2.70
2019,10,30,02,25,2.70
2019,10,30,02,26,2.70
2019,10,30,02,27,2.80
2019,10,30,02,28,2.80
2019,10,30,02,29,2.80
2019,10,30,02,30,2.70
2019,10,30,02,31,2.70
2019,10,30,02,32,2.70
2019,10,30,02,33,2.70
2019,10,30,02,34,2.60
2019,10,30,02,35,2.70
2019,10,30,02,36,2.60
2019,10,30,02,37,2.60
2019,10,30,02,38,2.70
2019,10,30,02,39,2.70
2019,10,30,02,40,2.60
2019,10,30,02,41,2.60
2019,10,30,02,42,2.60
2019,10,30,02,43,2.60
2019,10,30,02,44,2.60
2019,10,30,02,45,2.60
2019,10,30,02,46,2.60
2019,10,30,02,47,2.60
2019,10,30,02,48,2.60
2019,10,30,02,49,2.60
2019,10,30,02,50,2.60
2019,10,30,02,51,2.60
2019,10,30,02,52,2.60
2019,10,30,02,53,2.60
2019,10,30,02,54,2.60
2019,10,30,02,55,2.60
2019,10,30,02,56,2.60
2019,10,30,02,57,2.60
2019,10,30,02,58,2.60
2019,10,30,02,59,2.60
2019,10,30,03,00,2.60
2019,10,30,03,01,2.60
2019,10,30,03,02,2.60
2019,10,30,03,03,2.60
2019,10,30,03,04,2.60
2019,10,30,03,05,2.60
2019,10,30,03,06,2.60
2019,10,30,03,07,2.60
2019,10,30,03,08,2.60
2019,10,30,03,09,2.60
2019,10,30,03,10,2.60
2019,10,30,03,11,2.60
2019,10,30,03,12,2.60
2019,10,30,03,13,2.60
2019,10,30,03,14,2.60
2019,10,30,03,15,2.60
2019,10,30,03,16,2.70
2019,10,30,03,17,2.70
2019,10,30,03,18,2.60
2019,10,30,03,19,2.60
2019,10,30,03,20,2.60
2019,10,30,03,21,2.60
2019,10,30,03,22,2.50
2019,10,30,03,23,2.50
2019,10,30,03,24,2.50
2019,10,30,03,25,2.50
2019,10,30,03,26,2.50
2019,10,30,03,27,2.50
2019,10,30,03,28,2.50
2019,10,30,03,29,2.50
2019,10,30,03,30,2.50
2019,10,30,03,31,2.50
2019,10,30,03,32,2.50
2019,10,30,03,33,2.50
2019,10,30,03,34,2.50
2019,10,30,03,35,2.60
2019,10,30,03,36,2.60
2019,10,30,03,37,2.60
2019,10,30,03,38,2.50
2019,10,30,03,39,2.50
2019,10,30,03,40,2.50
2019,10,30,03,41,2.50
2019,10,30,03,42,2.50
2019,10,30,03,43,2.50
2019,10,30,03,44,2.50
2019,10,30,03,45,2.50
2019,10,30,03,46,2.50
2019,10,30,03,47,2.50
2019,10,30,03,48,2.50
2019,10,30,03,49,2.50
2019,10,30,03,50,2.50
2019,10,30,03,51,2.50
2019,10,30,03,52,2.50
2019,10,30,03,53,2.50
2019,10,30,03,54,2.50
2019,10,30,03,55,2.50
2019,10,30,03,56,2.50
2019,10,30,05,37,2.60
2019,10,30,05,38,2.60
2019,10,30,05,39,2.60
2019,10,30,05,40,2.60
2019,10,30,05,41,2.60
2019,10,30,05,42,2.50
2019,10,30,05,43,2.50
2019,10,30,05,44,2.40
2019,10,30,05,45,2.40
2019,10,30,05,46,2.40
2019,10,30,05,47,2.30
2019,10,30,05,48,2.30
2019,10,30,05,49,2.30
2019,10,30,05,50,2.30
2019,10,30,05,51,2.40
2019,10,30,05,52,2.40
2019,10,30,05,53,2.40
2019,10,30,05,54,2.40
2019,10,30,05,55,2.40
2019,10,30,05,56,2.40
2019,10,30,05,57,2.40
2019,10,30,05,58,2.50
2019,10,30,05,59,2.50
2019,10,30,06,00,2.40
2019,10,30,06,01,2.40
2019,10,30,06,02,2.40
2019,10,30,06,03,2.50
2019,10,30,06,04,2.50
2019,10,30,06,05,2.50
2019,10,30,06,06,2.50
2019,10,30,06,07,2.50
2019,10,30,06,08,2.50
2019,10,30,06,09,2.50
2019,10,30,06,10,2.40
2019,10,30,06,11,2.50
2019,10,30,06,12,2.50
2019,10,30,06,13,2.50
2019,10,30,06,14,2.50
2019,10,30,06,15,2.50
2019,10,30,06,16,2.60
2019,10,30,06,17,2.60
2019,10,30,06,18,2.70
2019,10,30,06,19,2.70
2019,10,30,06,20,2.70
2019,10,30,06,21,2.70
2019,10,30,06,22,2.70
2019,10,30,06,23,2.80
2019,10,30,06,24,2.80
2019,10,30,06,25,2.80
2019,10,30,06,26,2.80
2019,10,30,06,27,2.80
2019,10,30,06,28,2.70
2019,10,30,06,29,2.70
2019,10,30,06,30,2.70
2019,10,30,06,31,2.60
2019,10,30,06,32,2.60
2019,10,30,06,33,2.60
2019,10,30,06,34,2.50
2019,10,30,06,35,2.40
2019,10,30,06,36,2.40
2019,10,30,06,37,2.40
2019,10,30,06,38,2.40
2019,10,30,06,39,2.40
2019,10,30,06,40,2.40
2019,10,30,06,41,2.40
2019,10,30,06,42,2.40
2019,10,30,06,43,2.40
2019,10,30,06,44,2.40
2019,10,30,06,45,2.40
2019,10,30,06,46,2.40
2019,10,30,06,47,2.40
2019,10,30,06,48,2.40
2019,10,30,06,49,2.50
2019,10,30,06,50,2.50
2019,10,30,06,51,2.60
2019,10,30,06,52,2.50
2019,10,30,06,53,2.50
2019,10,30,06,54,2.50
2019,10,30,06,55,2.40
2019,10,30,06,56,2.40
2019,10,30,06,57,2.40
2019,10,30,06,58,2.40
2019,10,30,06,59,2.40
2019,10,30,07,00,2.40
2019,10,30,07,01,2.40
2019,10,30,07,02,2.40
2019,10,30,07,03,2.40
2019,10,30,07,04,2.40
2019,10,30,07,05,2.40
2019,10,30,07,06,2.40
2019,10,30,07,07,2.40
2019,10,30,07,08,2.40
2019,10,30,07,09,2.40
2019,10,30,07,10,2.30
2019,10,30,07,11,2.30
2019,10,30,07,12,2.30
2019,10,30,07,13,2.30
2019,10,30,07,14,2.30
2019,10,30,07,15,2.30
2019,10,30,07,16,2.30
2019,10,30,07,17,2.20
2019,10,30,07,18,2.20
2019,10,30,07,19,2.20
2019,10,30,07,20,2.20
2019,10,30,07,21,2.20
2019,10,30,07,22,2.20
2019,10,30,07,23,2.20
2019,10,30,07,24,2.20
2019,10,30,07,25,2.20
2019,10,30,07,26,2.20
2019,10,30,07,27,2.20
2019,10,30,07,28,2.20
2019,10,30,07,29,2.20
2019,10,30,07,30,2.20
2019,10,30,07,31,2.20
2019,10,30,07,32,2.20
2019,10,30,07,33,2.20
2019,10,30,07,34,2.20
2019,10,30,07,35,2.20
2019,10,30,07,36,2.20
2019,10,30,07,37,2.30
2019,10,30,07,38,2.30
2019,10,30,07,39,2.30
2019,10,30,07,40,2.30
2019,10,30,07,41,2.30
2019,10,30,07,42,2.30
2019,10,30,07,43,2.30
2019,10,30,07,44,2.30
2019,10,30,07,45,2.40
2019,10,30,07,46,2.40
2019,10,30,07,47,2.40
2019,10,30,07,48,2.40
2019,10,30,07,49,2.40
2019,10,30,07,50,2.40
2019,10,30,07,51,2.40
2019,10,30,07,52,2.40
2019,10,30,07,53,2.40
2019,10,30,07,54,2.40
2019,10,30,07,55,2.40
2019,10,30,07,56,2.40
2019,10,30,07,57,2.40
2019,10,30,07,58,2.40
2019,10,30,07,59,2.40
2019,10,30,08,00,2.40
2019,10,30,08,01,2.40
2019,10,30,08,02,2.40
2019,10,30,08,03,2.40
2019,10,30,08,04,2.40
2019,10,30,08,05,2.40
2019,10,30,08,06,2.40
2019,10,30,08,07,2.40
2019,10,30,08,08,2.40
2019,10,30,08,09,2.40
2019,10,30,08,10,2.40
2019,10,30,08,11,2.40
2019,10,30,08,12,2.40
2019,10,30,08,13,2.40
2019,10,30,08,14,2.50
2019,10,30,08,15,2.50
2019,10,30,08,16,2.50
2019,10,30,08,17,2.60
2019,10,30,08,18,2.60
2019,10,30,08,19,2.60
2019,10,30,08,20,2.60
2019,10,30,08,21,2.60
2019,10,30,08,22,2.70
2019,10,30,08,23,2.70
2019,10,30,08,24,2.70
2019,10,30,08,25,2.70
2019,10,30,08,26,2.70
2019,10,30,08,27,2.70
2019,10,30,08,28,2.70
2019,10,30,08,29,2.70
2019,10,30,08,30,2.80
2019,10,30,08,31,2.80
2019,10,30,08,32,2.80
2019,10,30,08,33,2.80
2019,10,30,08,34,2.80
2019,10,30,08,35,2.80
2019,10,30,08,36,2.80
2019,10,30,08,37,2.80
2019,10,30,08,38,2.80
2019,10,30,08,39,2.80
2019,10,30,08,40,2.80
2019,10,30,08,41,2.80
2019,10,30,08,42,2.80
2019,10,30,08,43,2.80
2019,10,30,08,44,2.90
2019,10,30,08,45,2.90
2019,10,30,08,46,2.90
2019,10,30,08,47,3.00
2019,10,30,08,48,3.10
2019,10,30,08,49,3.10
2019,10,30,08,50,3.20
2019,10,30,08,51,3.30
2019,10,30,08,52,3.40
2019,10,30,08,53,3.50
2019,10,30,08,54,3.60
2019,10,30,08,55,3.60
2019,10,30,08,56,3.80
2019,10,30,08,57,3.90
2019,10,30,08,58,4.00
2019,10,30,08,59,4.00
2019,10,30,09,00,4.10
2019,10,30,09,01,4.10
2019,10,30,09,02,4.20
2019,10,30,09,03,4.20
2019,10,30,09,04,4.30
2019,10,30,09,05,4.30
2019,10,30,09,06,4.30
2019,10,30,09,07,4.30
2019,10,30,09,08,4.40
2019,10,30,09,09,4.40
2019,10,30,09,10,4.40
2019,10,30,09,11,4.50
2019,10,30,09,12,4.60
2019,10,30,09,13,4.60
2019,10,30,09,14,4.60
2019,10,30,09,15,4.70
2019,10,30,09,16,4.70
2019,10,30,09,17,4.80
2019,10,30,09,18,4.80
2019,10,30,09,19,4.90
2019,10,30,09,20,5.00
2019,10,30,09,21,5.00
2019,10,30,09,22,5.10
2019,10,30,09,23,5.10
2019,10,30,09,24,5.20
2019,10,30,09,25,5.20
2019,10,30,09,26,5.30
2019,10,30,09,27,5.40
2019,10,30,09,28,5.40
2019,10,30,09,29,5.50
2019,10,30,09,30,5.60
2019,10,30,09,31,5.60
2019,10,30,09,32,5.70
2019,10,30,09,33,5.70
2019,10,30,09,34,5.80
2019,10,30,09,35,5.80
2019,10,30,09,36,5.90
2019,10,30,09,37,5.90
2019,10,30,09,38,5.90
2019,10,30,09,39,6.00
2019,10,30,09,40,6.00
2019,10,30,09,41,6.10
2019,10,30,09,42,6.20
2019,10,30,09,43,6.20
2019,10,30,09,44,6.30
2019,10,30,09,45,6.30
2019,10,30,09,46,6.30
2019,10,30,09,47,6.40
2019,10,30,09,48,6.50
2019,10,30,09,49,6.50
2019,10,30,09,50,6.60
2019,10,30,09,51,6.60
2019,10,30,09,52,6.60
2019,10,30,09,53,6.60
2019,10,30,09,54,6.60
2019,10,30,09,55,6.70
2019,10,30,09,56,6.70
2019,10,30,09,57,6.70
2019,10,30,09,58,6.70
2019,10,30,09,59,6.70
2019,10,30,10,00,6.70
2019,10,30,10,01,6.70
2019,10,30,10,02,6.70
2019,10,30,10,03,6.70
2019,10,30,10,04,6.70
2019,10,30,10,05,6.70
2019,10,30,10,06,6.70
2019,10,30,10,07,6.70
2019,10,30,10,08,6.70
2019,10,30,10,09,6.80
2019,10,30,10,10,6.80
2019,10,30,10,11,6.80
2019,10,30,10,12,6.80
2019,10,30,10,13,6.80
2019,10,30,10,14,6.80
2019,10,30,10,15,6.80
2019,10,30,10,16,6.80
2019,10,30,10,17,6.80
2019,10,30,10,18,6.80
2019,10,30,10,19,6.80
2019,10,30,10,20,6.80
2019,10,30,10,21,6.80
2019,10,30,10,22,6.80
2019,10,30,10,23,6.80
2019,10,30,10,24,6.80
2019,10,30,10,25,6.80
2019,10,30,10,26,6.80
2019,10,30,10,27,6.80
2019,10,30,10,28,6.80
2019,10,30,10,29,6.80
2019,10,30,10,30,6.90
2019,10,30,10,31,6.90
2019,10,30,10,32,6.90
2019,10,30,10,33,6.90
2019,10,30,10,34,6.90
2019,10,30,10,35,6.90
2019,10,30,10,36,6.90
2019,10,30,10,37,6.90
2019,10,30,10,38,6.90
2019,10,30,10,39,6.90
2019,10,30,10,40,7.00
2019,10,30,10,41,7.00
2019,10,30,10,42,7.10
2019,10,30,10,43,7.10
2019,10,30,10,44,7.10
2019,10,30,10,45,7.10
2019,10,30,10,46,7.20
2019,10,30,10,47,7.20
2019,10,30,10,48,7.20
2019,10,30,10,49,7.20
2019,10,30,10,50,7.20
2019,10,30,10,51,7.20
2019,10,30,10,52,7.20
2019,10,30,10,53,7.30
2019,10,30,10,54,7.30
2019,10,30,10,55,7.30
2019,10,30,10,56,7.40
2019,10,30,10,57,7.40
2019,10,30,10,58,7.50
2019,10,30,10,59,7.50
2019,10,30,11,00,7.50
2019,10,30,11,01,7.50
2019,10,30,11,02,7.40
2019,10,30,11,03,7.40
2019,10,30,11,04,7.40
2019,10,30,11,05,7.40
2019,10,30,11,06,7.40
2019,10,30,11,07,7.40
2019,10,30,11,08,7.40
2019,10,30,11,09,7.40
2019,10,30,11,10,7.40
2019,10,30,11,11,7.40
2019,10,30,11,12,7.40
2019,10,30,11,13,7.40
2019,10,30,11,14,7.40
2019,10,30,11,15,7.40
2019,10,30,11,16,7.40
2019,10,30,11,17,7.40
2019,10,30,11,18,7.40
2019,10,30,11,19,7.40
2019,10,30,11,20,7.40
2019,10,30,11,21,7.50
2019,10,30,11,22,7.50
2019,10,30,11,23,7.60
2019,10,30,11,24,7.60
2019,10,30,11,25,7.60
2019,10,30,11,26,7.70
2019,10,30,11,27,7.70
2019,10,30,11,28,7.60
2019,10,30,11,29,7.60
2019,10,30,11,30,7.60
2019,10,30,11,31,7.60
2019,10,30,11,32,7.60
2019,10,30,11,33,7.60
2019,10,30,11,34,7.60
2019,10,30,11,35,7.60
2019,10,30,11,36,7.60
2019,10,30,11,37,7.60
2019,10,30,11,38,7.60
2019,10,30,11,39,7.60
2019,10,30,11,40,7.60
2019,10,30,11,41,7.60
2019,10,30,11,42,7.60
2019,10,30,11,43,7.50
2019,10,30,11,44,7.50
2019,10,30,11,45,7.50
2019,10,30,11,46,7.40
2019,10,30,11,47,7.40
2019,10,30,11,48,7.40
2019,10,30,11,49,7.40
2019,10,30,11,50,7.40
2019,10,30,11,51,7.40
2019,10,30,11,52,7.40
2019,10,30,11,53,7.40
2019,10,30,11,54,7.40
2019,10,30,11,55,7.50
2019,10,30,11,56,7.50
2019,10,30,11,57,7.50
2019,10,30,11,58,7.60
2019,10,30,11,59,7.60
2019,10,30,12,00,7.60
2019,10,30,12,01,7.70
2019,10,30,12,02,7.70
2019,10,30,12,03,7.70
2019,10,30,12,04,7.80
2019,10,30,12,05,7.80
2019,10,30,12,06,7.80
2019,10,30,12,07,7.80
2019,10,30,12,08,7.80
2019,10,30,12,09,7.80
2019,10,30,12,10,7.80
2019,10,30,12,11,7.90
2019,10,30,12,12,7.90
2019,10,30,12,13,7.90
2019,10,30,12,14,7.90
2019,10,30,12,15,8.00
2019,10,30,12,16,8.00
2019,10,30,12,17,8.10
2019,10,30,12,18,8.10
2019,10,30,12,19,8.10
2019,10,30,12,20,8.10
2019,10,30,12,21,8.10
2019,10,30,12,22,8.10
2019,10,30,12,23,8.00
2019,10,30,12,24,8.00
2019,10,30,12,25,7.90
2019,10,30,12,26,7.90
2019,10,30,12,27,8.00
2019,10,30,12,28,8.00
2019,10,30,12,29,8.00
2019,10,30,12,30,8.00
2019,10,30,12,31,8.10
2019,10,30,12,32,8.10
2019,10,30,12,33,8.10
2019,10,30,12,34,8.10
2019,10,30,12,35,8.10
2019,10,30,12,36,8.00
2019,10,30,12,37,8.00
2019,10,30,12,38,7.90
2019,10,30,12,39,7.90
2019,10,30,12,40,7.90
2019,10,30,12,41,7.90
2019,10,30,12,42,7.90
2019,10,30,12,43,7.90
2019,10,30,12,44,7.90
2019,10,30,12,45,7.90
2019,10,30,12,46,7.90
2019,10,30,12,47,8.00
2019,10,30,12,48,8.00
2019,10,30,12,49,8.00
2019,10,30,12,50,8.00
2019,10,30,12,51,8.10
2019,10,30,12,52,8.10
2019,10,30,12,53,8.20
2019,10,30,12,54,8.20
2019,10,30,12,55,8.20
2019,10,30,12,56,8.10
2019,10,30,12,57,8.10
2019,10,30,12,58,8.10
2019,10,30,12,59,8.10
2019,10,30,13,00,8.10
2019,10,30,13,01,8.10
2019,10,30,13,02,8.10
2019,10,30,13,03,8.10
2019,10,30,13,04,8.10
2019,10,30,13,05,8.20
2019,10,30,13,06,8.20
2019,10,30,13,07,8.20
2019,10,30,13,08,8.20
2019,10,30,13,09,8.20
2019,10,30,13,10,8.20
2019,10,30,13,11,8.20
2019,10,30,13,12,8.30
2019,10,30,13,13,8.30
2019,10,30,13,14,8.30
2019,10,30,13,15,8.30
2019,10,30,13,16,8.20
2019,10,30,13,17,8.20
2019,10,30,13,18,8.10
2019,10,30,13,19,8.10
2019,10,30,13,20,8.10
2019,10,30,13,21,8.00
2019,10,30,13,22,8.00
2019,10,30,13,23,7.90
2019,10,30,13,24,7.90
2019,10,30,13,25,7.90
2019,10,30,13,26,7.90
2019,10,30,13,27,7.90
2019,10,30,13,28,7.90
2019,10,30,13,29,7.90
2019,10,30,13,30,7.90
2019,10,30,13,31,7.90
2019,10,30,13,32,7.90
2019,10,30,13,33,7.90
2019,10,30,13,34,7.90
2019,10,30,13,35,7.90
2019,10,30,13,36,7.90
2019,10,30,13,37,7.90
2019,10,30,13,38,7.90
2019,10,30,13,39,7.90
2019,10,30,13,40,8.00
2019,10,30,13,41,8.00
2019,10,30,13,42,8.00
2019,10,30,13,43,8.10
2019,10,30,13,44,8.10
2019,10,30,13,45,8.10
2019,10,30,13,46,8.10
2019,10,30,13,47,8.10
2019,10,30,13,48,8.10
2019,10,30,13,49,8.10
2019,10,30,13,50,8.20
2019,10,30,13,51,8.20
2019,10,30,13,52,8.30
2019,10,30,13,53,8.30
2019,10,30,13,54,8.40
2019,10,30,13,55,8.40
2019,10,30,13,56,8.50
2019,10,30,13,57,8.60
2019,10,30,13,58,8.60
2019,10,30,13,59,8.60
2019,10,30,14,00,8.60
2019,10,30,14,01,8.60
2019,10,30,14,02,8.60
2019,10,30,14,03,8.60
2019,10,30,14,04,8.50
2019,10,30,14,05,8.40
2019,10,30,14,06,8.40
2019,10,30,14,07,8.40
2019,10,30,14,08,8.40
2019,10,30,14,09,8.40
2019,10,30,14,10,8.40
2019,10,30,14,11,8.40
2019,10,30,14,12,8.40
2019,10,30,14,13,8.50
2019,10,30,14,14,8.50
2019,10,30,14,15,8.50
2019,10,30,14,16,8.50
2019,10,30,14,17,8.50
2019,10,30,14,18,8.50
2019,10,30,14,19,8.50
2019,10,30,14,20,8.50
2019,10,30,14,21,8.50
2019,10,30,14,22,8.50
2019,10,30,14,23,8.50
2019,10,30,14,24,8.50
2019,10,30,14,25,8.50
2019,10,30,14,26,8.60
2019,10,30,14,27,8.60
2019,10,30,14,28,8.70
2019,10,30,14,29,8.70
2019,10,30,14,30,8.80
2019,10,30,14,31,8.80
2019,10,30,14,32,8.80
2019,10,30,14,33,8.80
2019,10,30,14,34,8.90
2019,10,30,14,35,8.90
2019,10,30,14,36,8.90
2019,10,30,14,37,8.90
2019,10,30,14,38,8.90
2019,10,30,14,39,8.90
2019,10,30,14,40,8.90
2019,10,30,14,41,8.90
2019,10,30,14,42,8.90
2019,10,30,14,43,8.90
2019,10,30,14,44,8.80
2019,10,30,14,45,8.80
2019,10,30,14,46,8.80
2019,10,30,14,47,8.80
2019,10,30,14,48,8.90
2019,10,30,14,49,8.90
2019,10,30,14,50,8.80
2019,10,30,14,51,8.80
2019,10,30,14,52,8.80
2019,10,30,14,53,8.80
2019,10,30,14,54,8.80
2019,10,30,14,55,8.80
2019,10,30,14,56,8.90
2019,10,30,14,57,8.90
2019,10,30,14,58,8.90
2019,10,30,14,59,8.90
2019,10,30,15,00,8.90
2019,10,30,15,01,8.90
2019,10,30,15,02,8.90
2019,10,30,15,03,9.00
2019,10,30,15,04,9.00
2019,10,30,15,05,9.00
2019,10,30,15,06,9.00
2019,10,30,15,07,9.00
2019,10,30,15,08,9.00
2019,10,30,15,09,9.00
2019,10,30,15,10,9.10
2019,10,30,15,11,9.10
2019,10,30,15,12,9.10
2019,10,30,15,13,9.10
2019,10,30,15,14,9.10
2019,10,30,15,15,9.10
2019,10,30,15,16,9.10
2019,10,30,15,17,9.10
2019,10,30,15,18,9.10
2019,10,30,15,19,9.10
2019,10,30,15,20,9.00
2019,10,30,15,21,9.00
2019,10,30,15,22,8.90
2019,10,30,15,23,9.00
2019,10,30,15,24,8.90
2019,10,30,15,25,8.90
2019,10,30,15,26,8.90
2019,10,30,15,27,8.90
2019,10,30,15,28,8.90
2019,10,30,15,29,8.90
2019,10,30,15,30,8.80
2019,10,30,15,31,8.80
2019,10,30,15,32,8.80
2019,10,30,15,33,8.80
2019,10,30,15,34,8.80
2019,10,30,15,35,8.90
2019,10,30,15,36,8.90
2019,10,30,15,37,8.90
2019,10,30,15,38,8.80
2019,10,30,15,39,8.80
2019,10,30,15,40,8.80
2019,10,30,15,41,8.80
2019,10,30,15,42,8.80
2019,10,30,15,43,8.80
2019,10,30,15,44,8.80
2019,10,30,15,45,8.80
2019,10,30,15,46,8.80
2019,10,30,15,47,8.80
2019,10,30,15,48,8.80
2019,10,30,15,49,8.80
2019,10,30,15,50,8.80
2019,10,30,15,51,8.80
2019,10,30,15,52,8.80
2019,10,30,15,53,8.80
2019,10,30,15,54,8.80
2019,10,30,15,55,8.90
2019,10,30,15,56,8.90
2019,10,30,15,57,8.90
2019,10,30,15,58,8.90
2019,10,30,15,59,8.90
2019,10,30,16,00,8.90
2019,10,30,16,01,8.90
2019,10,30,16,02,8.90
2019,10,30,16,03,8.90
2019,10,30,16,04,8.80
2019,10,30,16,05,8.80
2019,10,30,16,06,8.80
2019,10,30,16,07,8.90
2019,10,30,16,08,8.90
2019,10,30,16,09,9.00
2019,10,30,16,10,9.00
2019,10,30,16,11,9.10
2019,10,30,16,12,9.10
2019,10,30,16,13,9.10
2019,10,30,16,14,9.20
2019,10,30,16,15,9.20
2019,10,30,16,16,9.20
2019,10,30,16,17,9.20
2019,10,30,16,18,9.20
2019,10,30,16,19,9.20
2019,10,30,16,20,9.20
2019,10,30,16,21,9.20
2019,10,30,16,22,9.20
2019,10,30,16,23,9.30
2019,10,30,16,24,9.30
2019,10,30,16,25,9.30
2019,10,30,16,26,9.20
2019,10,30,16,27,9.20
2019,10,30,16,28,9.20
2019,10,30,16,29,9.20
2019,10,30,16,30,9.10
2019,10,30,16,31,9.10
2019,10,30,16,32,9.10
2019,10,30,16,33,9.00
2019,10,30,16,34,9.00
2019,10,30,16,35,8.90
2019,10,30,16,36,8.90
2019,10,30,16,37,8.90
2019,10,30,16,38,8.90
2019,10,30,16,39,8.90
2019,10,30,16,40,8.80
2019,10,30,16,41,8.80
2019,10,30,16,42,8.80
2019,10,30,16,43,8.80
2019,10,30,16,44,8.80
2019,10,30,16,45,8.80
2019,10,30,16,46,8.80
2019,10,30,16,47,8.80
2019,10,30,16,48,8.70
2019,10,30,16,49,8.70
2019,10,30,16,50,8.70
2019,10,30,16,51,8.70
2019,10,30,16,52,8.60
2019,10,30,16,53,8.60
2019,10,30,16,54,8.60
2019,10,30,16,55,8.50
2019,10,30,16,56,8.50
2019,10,30,16,57,8.50
2019,10,30,16,58,8.40
2019,10,30,16,59,8.40
2019,10,30,17,00,8.40
2019,10,30,17,01,8.40
2019,10,30,17,02,8.40
2019,10,30,17,03,8.40
2019,10,30,17,04,8.40
2019,10,30,17,05,8.40
2019,10,30,17,06,8.40
2019,10,30,17,07,8.30
2019,10,30,17,08,8.30
2019,10,30,17,09,8.30
2019,10,30,17,10,8.20
2019,10,30,17,11,8.10
2019,10,30,17,12,8.10
2019,10,30,17,13,8.10
2019,10,30,17,14,8.00
2019,10,30,17,15,8.00
2019,10,30,17,16,7.90
2019,10,30,17,17,7.90
2019,10,30,17,18,7.80
2019,10,30,17,19,7.80
2019,10,30,17,20,7.70
2019,10,30,17,21,7.70
2019,10,30,17,22,7.60
2019,10,30,17,23,7.60
2019,10,30,17,24,7.50
2019,10,30,17,25,7.40
2019,10,30,17,26,7.40
2019,10,30,17,27,7.40
2019,10,30,17,28,7.30
2019,10,30,17,29,7.30
2019,10,30,17,30,7.20
2019,10,30,17,31,7.20
2019,10,30,17,32,7.10
2019,10,30,17,33,7.10
2019,10,30,17,34,7.00
2019,10,30,17,35,7.00
2019,10,30,17,36,6.90
2019,10,30,17,37,6.90
2019,10,30,17,38,6.90
2019,10,30,17,39,6.80
2019,10,30,17,40,6.80
2019,10,30,17,41,6.80
2019,10,30,17,42,6.70
2019,10,30,17,43,6.70
2019,10,30,17,44,6.70
2019,10,30,17,45,6.60
2019,10,30,17,46,6.60
2019,10,30,17,47,6.50
2019,10,30,17,48,6.50
2019,10,30,17,49,6.40
2019,10,30,17,50,6.40
2019,10,30,17,51,6.40
2019,10,30,17,52,6.30
2019,10,30,17,53,6.30
2019,10,30,17,54,6.30
2019,10,30,17,55,6.20
2019,10,30,17,56,6.20
2019,10,30,17,57,6.20
2019,10,30,17,58,6.20
2019,10,30,17,59,6.10
2019,10,30,18,00,6.10
2019,10,30,18,01,6.10
2019,10,30,18,02,6.00
2019,10,30,18,03,6.00
2019,10,30,18,04,6.00
2019,10,30,18,05,5.90
2019,10,30,18,06,5.90
2019,10,30,18,07,5.90
2019,10,30,18,08,5.80
2019,10,30,18,09,5.80
2019,10,30,18,10,5.80
2019,10,30,18,11,5.80
2019,10,30,18,12,5.80
2019,10,30,18,13,5.70
2019,10,30,18,14,5.70
2019,10,30,18,15,5.70
2019,10,30,18,16,5.70
2019,10,30,18,17,5.70
2019,10,30,18,18,5.70
2019,10,30,18,19,5.70
2019,10,30,18,20,5.60
2019,10,30,18,21,5.60
2019,10,30,18,22,5.60
2019,10,30,18,23,5.60
2019,10,30,18,24,5.60
2019,10,30,18,25,5.50
2019,10,30,18,26,5.50
2019,10,30,18,27,5.50
2019,10,30,18,28,5.50
2019,10,30,18,29,5.40
2019,10,30,18,30,5.40
2019,10,30,18,31,5.40
2019,10,30,18,32,5.40
2019,10,30,18,33,5.40
2019,10,30,18,34,5.40
2019,10,30,18,35,5.40
2019,10,30,18,36,5.40
2019,10,30,18,37,5.40
2019,10,30,18,38,5.40
2019,10,30,18,39,5.40
2019,10,30,18,40,5.40
2019,10,30,18,41,5.30
2019,10,30,18,42,5.30
2019,10,30,18,43,5.30
2019,10,30,18,44,5.30
2019,10,30,18,45,5.30
2019,10,30,18,46,5.30
2019,10,30,18,47,5.30
2019,10,30,18,48,5.30
2019,10,30,18,49,5.30
2019,10,30,18,50,5.20
2019,10,30,18,51,5.20
2019,10,30,18,52,5.20
2019,10,30,18,53,5.20
2019,10,30,18,54,5.20
2019,10,30,18,55,5.20
2019,10,30,18,56,5.20
2019,10,30,18,57,5.20
2019,10,30,18,58,5.20
2019,10,30,18,59,5.20
2019,10,30,19,00,5.20
2019,10,30,19,01,5.10
2019,10,30,19,02,5.10
2019,10,30,19,03,5.10
2019,10,30,19,04,5.10
2019,10,30,19,05,5.10
2019,10,30,19,06,5.10
2019,10,30,19,07,5.10
2019,10,30,19,08,5.10
2019,10,30,19,09,5.10
2019,10,30,19,10,5.10
2019,10,30,19,11,5.10
2019,10,30,19,12,5.10
2019,10,30,19,13,5.10
2019,10,30,19,14,5.10
2019,10,30,19,15,5.00
2019,10,30,19,16,5.00
2019,10,30,19,17,5.00
2019,10,30,19,18,5.00
2019,10,30,19,19,5.00
2019,10,30,19,20,5.00
2019,10,30,19,21,4.90
2019,10,30,19,22,4.90
2019,10,30,19,23,4.90
2019,10,30,19,24,4.90
2019,10,30,19,25,4.90
2019,10,30,19,26,4.90
2019,10,30,19,27,4.90
2019,10,30,19,28,4.90
2019,10,30,19,29,5.00
2019,10,30,19,30,5.00
2019,10,30,19,31,5.00
2019,10,30,19,32,5.00
2019,10,30,19,33,5.00
2019,10,30,19,34,5.00
2019,10,30,19,35,5.00
2019,10,30,19,36,4.90
2019,10,30,19,37,4.90
2019,10,30,19,38,4.90
2019,10,30,19,39,4.90
2019,10,30,19,40,4.90
2019,10,30,19,41,4.90
2019,10,30,19,42,4.90
2019,10,30,19,43,4.90
2019,10,30,19,44,4.90
2019,10,30,19,45,4.90
2019,10,30,19,46,4.90